Location: Hamburg
(53.5500°N, 10.0000°E)
Time: 15:28:03
(UTC+02:00)

Daily predictions for brighter satellites

Satellite Brightness Start Highest point End
(mag) Time Altitude Azimuth Time Altitude Azimuth Time Altitude Azimuth
Cosmos 1943 Rocket 3.2 19:24:24 10° NNW 19:29:22 30° NE 19:34:15 10° E
Spot 1 4.3 19:25:55 10° SE 19:30:20 52° ENE 19:34:32 10° N
Cosmos 292 Rocket 4.0 19:27:01 10° SSW 19:31:51 78° WNW 19:36:44 10° NNE
ATLAS CENTAUR R/B 4.4 19:28:37 10° S 19:34:30 45° ESE 19:51:42 10° NE
NOSS 0 Rocket 4.3 19:28:49 10° SW 19:35:00 70° NW 19:41:14 10° NNE
Cosmos 1452 Rocket 3.8 19:30:13 10° NNW 19:35:30 74° WSW 19:40:44 10° SSE
NOAA 12 4.1 19:30:51 10° SSE 19:36:07 77° ENE 19:41:27 10° NNW
Cosmos 2369 Rocket 2.4 19:30:41 10° NNW 19:36:13 53° NE 19:41:46 10° SE
NOSS 3-2 (C) 3.9 19:31:33 10° SSW 19:37:25 46° ESE 19:43:51 10° NE
Helios 1A 3.3 19:33:25 10° SE 19:37:26 45° ENE 19:41:30 10° N
Cosmos 1766 3.3 19:33:51 10° S 19:37:48 67° E 19:41:48 10° NNE
CZ-4B DEB 4.0 19:38:03 10° ESE 19:40:44 24° ENE 19:43:27 10° N
Meteor 1-28 Rocket 3.5 19:41:16 10° NNE 19:44:50 42° E 19:48:23 10° S
Nadezhda 4 Rocket 4.1 19:39:36 10° N 19:45:50 58° ENE 19:51:58 10° SSE
Cosmos 1743 Rocket 3.7 19:44:04 10° N 19:48:29 55° ENE 19:52:48 10° SSE
CZ-2D R/B 4.2 19:46:08 10° SE 19:49:32 30° ENE 19:52:58 10° N
Aureole 2 Rocket 3.0 19:46:11 10° SSW 19:50:32 87° WNW 19:54:41 10° NNE
Meteor 1-29 4.2 19:48:15 10° NE 19:51:05 22° E 19:53:53 10° SSE
Cosmos 1603 4.2 19:45:57 10° S 19:51:11 37° ESE 19:56:27 10° NE
Meteor 1-22 Rocket 4.1 19:46:10 10° SSW 19:51:29 88° WNW 19:56:50 10° NNE
ALOS 2.6 19:49:16 10° SE 19:53:41 44° ENE 19:58:09 10° N
Cosmos 192 4.3 19:48:59 10° SSW 19:53:55 69° ESE 19:58:53 10° NNE
Cosmos 1420 Rocket 4.1 19:49:36 10° NNW 19:54:56 85° WSW 20:00:16 10° SSE
Resurs 1-3 3.7 19:50:50 10° SSE 19:55:09 59° ENE 19:59:30 10° N
In-Cosmos 22 4.5 19:49:22 10° NNW 19:55:11 78° W 20:00:56 10° S
Cosmos 1092 Rocket 4.2 19:49:26 10° N 19:55:32 52° ENE 20:01:32 10° SSE
Cosmos 1072 Rocket 4.5 19:53:20 10° S 19:59:27 86° E 20:05:38 10° NNE
H-2A R/B 3.4 19:56:50 10° SE 20:00:24 36° ENE 20:03:58 10° N
Helios 1B rocket 3.0 19:57:19 10° NNE 20:01:09 36° E 20:04:58 10° SSE
Resurs 01 Rocket 1.6 19:58:10 10° SSE 20:02:37 84° ENE 20:07:06 10° NNW
Cosmos 1805 3.2 19:59:58 10° S 20:03:50 61° E 20:07:45 10° NNE
USA 215 4.3 19:59:58 10° ENE 20:05:04 24° SE 20:10:08 10° S
Cosmos 2026 Rocket 4.5 20:01:03 10° N 20:06:44 38° ENE 20:12:25 10° SE
COSMO-SKYMED 1 3.1 20:02:28 10° N 20:06:48 64° WNW 20:11:05 10° SSW
Cosmos 2333 Rocket 3.5 20:03:46 10° WSW 20:09:14 43° NW 20:14:44 10° NNE
Lacrosse 4 Rocket 4.0 20:13:35 10° NNW 20:15:43 13° N 20:17:52 10° NNE
Cosmos 1953 2.2 20:11:52 10° S 20:15:51 82° E 20:19:51 10° NNE
Spot 2 Rocket 3.7 20:11:15 10° SSE 20:16:17 76° WSW 20:21:22 10° NNW
ATLAS 5 CENTAUR R/B 1.9 20:12:36 10° SSW 20:17:28 65° SE 20:22:49 10° NE
Cosmos 1634 Rocket 4.4 20:13:22 10° SSE 20:19:01 38° E 20:24:41 10° NNE
GP-B 3.7 20:14:57 10° NNE 20:19:03 34° E 20:22:59 11° SSE
USA 186 1.8 20:19:54 30° ENE 20:20:03 31° ENE 20:22:18 10° N
Cosmos 1048 Rocket 4.3 20:15:24 10° S 20:20:23 44° ESE 20:25:19 10° NE
Cosmos 1733 3.8 20:19:48 10° SSE 20:23:21 35° E 20:26:53 10° NNE
ATLAS 3B R/B 3.7 20:17:00 10° W 20:24:14 48° NNW 20:31:09 10° NE
Cosmos 2058 3.5 20:20:52 10° N 20:24:41 35° ENE 20:26:44 22° ESE
Cosmos 1269 Rocket 4.1 20:20:05 10° S 20:25:13 54° ESE 20:30:22 10° NNE
Cosmos 1674 2.7 20:21:21 10° NNW 20:25:16 87° WSW 20:29:10 10° S
Cosmos 2237 Rocket 3.6 20:20:05 10° WSW 20:25:23 39° NW 20:30:42 10° NNE
Envisat 3.8 20:24:44 20° ESE 20:27:19 31° ENE 20:31:46 10° N
ISS -1.3 20:25:32 10° S 20:27:02 15° SSE 20:27:02 15° SSE
FengYun 1-2 T 4.4 20:22:51 10° SSE 20:28:21 78° WSW 20:33:53 10° NNW
ERBS 2.4 20:25:33 10° WNW 20:29:04 73° SSW 20:30:50 27° SE
Cosmos 1470 2.9 20:25:20 10° S 20:29:04 47° E 20:32:49 10° NNE
Cosmos 1805 Rocket 4.3 20:26:36 10° N 20:30:41 35° ENE 20:32:31 25° ESE
Meteor 1-11 4.4 20:25:15 10° N 20:30:58 54° ENE 20:35:55 14° SE
Cosmos 2151 3.0 20:27:30 10° N 20:31:41 58° ENE 20:35:03 15° SSE
Cosmos 1656 Rocket 4.3 20:27:26 10° NNW 20:32:28 37° NE 20:35:11 23° E
Cosmos 724 4.3 20:26:57 10° SSW 20:32:53 68° SE 20:38:59 10° NE
Cosmos 158 Rocket 4.4 20:29:39 10° SSE 20:34:02 34° ESE 20:38:28 10° NE
Cosmos 2034 Rocket 4.2 20:28:25 10° SSW 20:34:43 79° W 20:41:08 10° N
H-2A R/B 3.6 20:34:36 20° ENE 20:35:28 21° ENE 20:38:51 10° N
Cosmos-2242 3.3 20:32:12 10° SSW 20:36:35 74° WNW 20:41:02 10° N
Cosmos 482 Debris 3.5 20:34:31 10° W 20:36:46 60° S 20:37:32 41° SE
Cosmos 2221 3.4 20:42:24 29° E 20:42:24 29° E 20:46:04 10° NNE
Cosmos 1633 Rocket 4.0 20:38:48 10° N 20:42:38 29° ENE 20:43:15 28° E
SJ-11-01 4.5 20:45:01 27° SE 20:47:17 51° ENE 20:51:51 10° N
SL-16 R/B 3.1 20:41:54 10° SW 20:47:26 50° NW 20:53:01 10° NNE
NOSS 3-2 (A) 3.8 20:41:34 10° SW 20:47:51 76° NW 20:54:54 10° NE
H-2A R/B 3.9 20:47:27 13° ENE 20:48:16 13° NE 20:50:42 10° NNE
CZ-4C R/B 3.3 20:43:37 10° W 20:49:11 47° NNW 20:55:34 10° NE
Cosmos 1544 3.8 20:50:29 10° SSW 20:54:10 56° WNW 20:57:53 10° N
CZ-4 DEB 3.8 20:54:56 31° NE 20:54:56 31° NE 20:57:09 10° N
FENGYUN 3A 4.0 20:49:26 10° S 20:54:47 65° WSW 21:00:12 10° NNW
Cosmos 1500 Rocket 4.5 20:52:30 10° NNW 20:56:48 49° W 21:01:06 10° SSW
ERS-1 Rocket 3.1 20:55:46 31° SE 20:58:00 57° ENE 21:02:57 10° N
Cosmos 1626 3.6 20:55:11 10° N 20:57:30 23° NE 20:57:30 23° NE
Cosmos 1627 Rocket 4.4 20:52:25 10° N 20:58:39 87° E 21:04:56 10° S
Cosmos 2219 Rocket 4.4 20:54:57 10° W 20:59:21 22° NNW 21:03:47 10° NNE
YAOGAN 11 4.1 21:00:48 42° SE 21:01:59 58° ENE 21:06:14 10° N
Cosmos 1842 Rocket 3.6 20:59:53 10° SSW 21:04:14 77° WNW 21:08:38 10° N
Cosmos 1110 Rocket 4.3 21:00:12 10° NNW 21:05:29 70° WSW 21:09:12 20° S
Cosmos 1437 Rocket 3.7 21:06:48 32° NE 21:06:48 32° NE 21:09:16 10° NNE
Cosmos 1980 Rocket 4.3 21:02:25 10° NNW 21:05:48 16° NNE 21:08:56 11° NE
Cosmos 1666 Rocket 3.6 21:05:38 10° N 21:10:02 57° ENE 21:10:44 50° ESE
Cosmos 1943 Rocket 2.2 21:08:02 10° NW 21:13:42 77° WSW 21:16:33 30° SSE
CENTAUR R/B 2.6 21:07:54 10° SSW 21:13:59 56° SE 21:20:54 10° NE
ASTEX 1 3.8 21:10:43 10° N 21:15:35 63° W 21:20:25 10° SSW
Cosmos 2369 Rocket 3.5 21:15:00 10° NW 21:20:07 37° WSW 21:25:16 10° S
SL-14 R/B 3.5 21:17:28 10° NNW 21:21:31 70° W 21:22:47 41° SSW
Cosmos 2180 Rocket 4.5 21:20:54 34° SSE 21:23:19 55° E 21:29:18 10° NNE
MetOp-B 4.4 21:23:33 45° E 21:24:20 49° ENE 21:29:30 10° N
Aureole 3 4.1 21:18:02 10° N 21:24:35 75° ENE 21:26:21 44° SSE
Cosmos 1943 3.0 21:22:14 10° SSW 21:27:52 81° ESE 21:33:31 10° NNE
NOSS 3-2 (C) 4.0 21:21:55 10° WSW 21:28:14 62° NNW 21:35:15 10° NE
Cosmos 2251 Rocket 3.4 21:23:53 10° S 21:29:01 60° ESE 21:34:13 10° NNE
Gbstr 26 Del rocket 4.3 21:25:22 10° SW 21:28:37 33° S 21:28:37 33° S
ALOS 4.1 21:27:13 10° SSW 21:31:18 30° W 21:35:26 10° NNW
Cosmos 1470 Rocket 4.4 21:28:01 10° N 21:31:12 36° NE 21:31:12 36° NE
Cosmos 1939 Rocket 2.7 21:32:23 83° SW 21:32:28 85° WSW 21:36:28 10° NNW
SPOT 5 2.9 21:35:03 52° NE 21:35:03 52° NE 21:38:54 10° N
Cosmos 1603 4.5 21:29:34 10° SW 21:35:12 53° NW 21:40:51 10° NNE
Helios 1B rocket 4.3 21:32:48 10° N 21:36:26 30° WNW 21:40:03 10° SW
SL-16 R/B 4.5 21:35:41 10° NNW 21:38:45 14° N 21:41:48 10° NE
Cosmos 2279 Rocket 3.8 21:34:37 18° S 21:39:24 81° E 21:45:38 10° NNE
Sich 1 3.0 21:38:02 10° NNW 21:42:28 81° W 21:42:34 80° SW
USA 215 3.2 21:47:08 46° E 21:48:59 63° SE 21:55:28 10° SW
Cosmos 2266 Rocket 3.9 21:43:54 10° N 21:50:18 74° ENE 21:51:27 59° SE
Cosmos 1302 Rocket 4.4 21:45:16 10° NNW 21:50:22 56° WSW 21:51:41 43° SSW
Lacrosse 4 Rocket 3.6 21:53:02 10° NNW 21:56:13 18° NNE 21:56:26 18° NNE
Cosmos 1992 Rocket 4.0 21:56:17 10° NNW 22:01:15 69° NE 22:01:15 69° NE
Cosmos 2322 Rocket 4.3 21:58:09 10° NNW 22:01:37 16° NNE 22:03:47 13° NE
ATLAS 5 CENTAUR R/B 3.1 21:57:37 10° W 22:02:28 43° NNW 22:06:25 17° NE
Cosmos 2278 4.1 21:57:38 10° NNW 22:03:09 48° NE 22:03:09 48° NE
YAOGAN 6 4.5 22:07:08 28° NNW 22:07:08 28° NNW 22:08:58 10° NNW
Meteor 2-1 Rocket 4.5 22:01:43 21° SSW 22:05:44 72° WNW 22:11:41 10° N
Envisat 3.7 22:04:58 42° SW 22:06:10 51° W 22:11:08 10° NNW
Cosmos 1703 4.5 22:03:03 10° NNW 22:06:10 41° WNW 22:06:10 41° WNW
MetOp-A 4.1 22:10:22 77° SW 22:10:33 79° WSW 22:15:57 10° NNW
H-2A R/B 2.7 22:11:44 58° NW 22:11:44 58° NW 22:15:34 10° NNW
Cosmos 1697 Rocket 3.9 22:07:21 10° NNW 22:12:17 30° NE 22:12:17 30° NE
Cosmos 1656 Rocket 4.0 22:11:01 10° NW 22:16:18 55° WSW 22:16:35 54° SW
ATLAS 3B R/B 3.9 22:09:46 10° WNW 22:16:32 37° N 22:20:10 23° NE
Cosmos 2221 3.8 22:19:14 36° W 22:19:51 38° WNW 22:23:54 10° N
Cosmos 1633 Rocket 4.2 22:16:29 10° NNW 22:20:20 39° W 22:20:20 39° W
SeaSat 1 4.0 22:18:11 10° NNE 22:20:17 26° NNE 22:20:17 26° NNE
ARGOS 3.3 22:23:57 72° N 22:23:57 72° N 22:28:50 10° NNW
Terra 3.3 22:27:07 30° NNE 22:27:07 30° NNE 22:29:48 10° N
H-2A R/B 2.9 22:28:05 42° NNE 22:28:05 42° NNE 22:31:44 10° N
USA 81 4.4 22:30:12 60° NNW 22:30:12 60° NNW 22:34:38 10° N
Cosmos 2369 4.1 22:25:06 10° NNW 22:30:04 57° NNE 22:30:04 57° NNE
Cosmos 1626 4.5 22:30:24 10° NNW 22:32:12 23° NW 22:32:12 23° NW
CZ-4C R/B 3.8 22:33:29 10° WNW 22:39:08 35° N 22:42:12 24° NE
Cosmos 2360 Rocket 4.4 22:46:34 10° NNW 22:49:57 16° NNE 22:51:45 14° NE
SPOT 1/Viking Rocket 4.4 22:51:17 47° NW 22:51:17 47° NW 22:55:16 10° NNW
Cosmos 1980 Rocket 3.4 22:46:24 10° NNW 22:50:41 33° NNE 22:50:41 33° NNE
Cosmos 1943 Rocket 4.4 22:53:17 10° WNW 22:56:32 16° W 22:58:06 14° WSW
CENTAUR R/B 3.2 22:58:23 10° WSW 23:04:48 56° NNW 23:12:06 10° NE
SL-16 R/B 3.8 23:19:58 10° NNW 23:23:50 27° NNE 23:23:50 27° NNE
USA 215 4.0 23:34:32 43° W 23:34:32 43° W 23:38:42 10° W
Lacrosse 4 Rocket 4.2 23:31:30 10° NNW 23:32:46 18° NNW 23:32:46 18° NNW
Cosmos 2322 Rocket 3.8 23:42:07 10° NNW 23:45:35 30° N 23:45:35 30° N
ATLAS 5 CENTAUR R/B 3.8 23:43:42 10° WNW 23:47:57 30° N 23:47:57 30° N
